Temp
3 3 3 3 3 3 3 4 4 3 3 3 3 3 3 3 3 2 1 1 1 2 3 2 1 1 -1 0 1 2 2 4 4 5 8 9 10 12 13 15 15 15 16 17 17 18 18 18 18 19 19 18 19 19
2 3 3 2 2 2 2 3 3 3 2 2 2 2 2 2 2 2 1 1 1 1 2 1 1 1 1 1 -0 1 2 2 4 4 4 7 8 12 13 15 16 16 16 16 17 18 17 17 17 18 18 18 19 19
2 2 2 2 2 2 2 2 2 2 2 2 2 2 2 1 1 1 1 0 0 1 2 1 1 0 1 2 1 1 1 1 2 2 3 4 6 10 12 15 15 15 16 16 16 15 15 16 17 17 17 17 18 18
2 2 2 2 2 2 2 2 1 2 2 1 1 1 1 1 0 0 0 -1 -0 -0 0 0 -0 0 0 1 1 2 2 1 2 3 3 3 3 7 12 14 14 13 13 16 15 14 15 16 16 16 17 17 17 17
2 2 2 2 2 2 1 1 1 1 1 1 1 1 0 -0 -0 -0 -1 -1 -1 -1 -1 1 2 2 1 1 1 1 1 2 1 1 3 3 4 5 9 11 12 11 11 15 14 14 15 15 15 15 16 16 16 16
2 2 2 2 1 1 1 1 0 0 0 1 0 -0 -1 -1 -1 -1 -1 -0 -1 -1 -1 1 1 2 1 2 3 2 2 2 1 1 1 3 7 7 10 11 10 10 10 12 14 14 14 14 14 13 13 13 13 14
1 1 1 2 1 1 1 1 0 0 0 0 -0 -1 -1 -1 -1 -2 -2 -2 -1 -1 -1 -0 1 2 3 3 3 1 1 1 0 1 2 4 7 8 10 11 9 9 11 13 13 13 13 12 12 12 12 11 11 11
1 1 1 1 1 1 1 0 0 0 0 -0 -0 -1 -1 -1 -1 -1 -1 -2 -2 -2 -2 -1 0 1 1 1 1 1 1 0 1 2 3 5 7 9 9 7 7 9 10 12 12 11 11 11 11 11 11 11 10 10
1 1 1 1 1 0 1 0 0 0 0 -0 -0 -0 -1 -1 -1 -2 -2 -2 -2 -3 -2 -0 0 0 0 1 1 1 0 1 2 4 5 5 8 9 8 7 7 10 11 11 11 10 10 10 10 10 10 10 10 9
1 1 1 0 1 0 0 0 0 0 0 0 -0 -0 -1 -1 -2 -2 -2 -2 -2 -2 -1 1 0 -0 1 1 1 1 0 2 4 5 5 6 6 7 8 8 9 10 10 10 9 9 9 9 9 9 9 9 9 8
1 1 0 1 1 0 -0 0 0 0 -0 -0 -0 -1 -1 -1 -2 -2 -2 -2 -1 -1 1 1 1 1 1 2 2 2 3 4 6 6 6 6 7 7 8 8 9 9 9 9 9 9 10 9 9 9 9 9 9 9
-0 0 0 0 0 -0 -0 -0 -0 -0 0 0 -0 -0 -1 -1 -2 -1 -1 -1 -1 -0 -0 1 1 1 1 2 2 3 4 5 4 6 6 8 7 7 7 8 8 8 8 8 8 9 9 9 9 9 9 9 9 9
-0 0 0 0 0 -0 -0 -0 -0 -0 -0 -0 -0 -0 -1 -1 -1 -1 -1 -1 -1 -1 -0 1 2 2 2 2 2 3 3 5 6 8 8 6 7 7 7 7 7 7 7 8 8 8 8 8 8 8 8 8 8 9
0 -0 -0 -0 -0 -1 -1 -1 -0 -1 -1 -1 -2 -1 -2 -1 -0 -1 -2 -1 -0 -0 1 1 2 2 2 2 3 3 5 7 6 9 6 6 7 6 6 6 6 7 7 7 7 7 7 7 7 7 8 8 8 8
0 -1 -1 -1 -1 -1 -1 -1 -1 -1 -1 -2 -3 -1 -1 -0 -1 -1 -1 -0 1 1 0 1 2 3 2 3 3 4 5 6 5 5 4 6 6 6 6 6 6 6 6 6 5 5 6 6 6 7 7 7 7 6
-1 -1 -1 -1 -1 -1 -1 -1 -1 -1 -1 -2 -1 -1 -1 -0 -0 -1 -0 -0 -1 -0 -0 1 2 3 3 2 4 5 5 5 7 5 5 5 5 5 5 5 5 5 6 4 3 3 4 4 4 5 5 5 5 5
-1 -1 -1 -1 -1 -1 -1 -1 -1 -1 -2 -1 -1 -0 -1 -1 -1 -1 -1 0 -0 -0 1 2 3 3 4 5 5 4 3 5 5 4 5 5 5 5 5 5 5 5 4 4 3 4 4 4 3 4 4 5 3 4
-1 -1 -1 -1 -2 -1 -1 -2 -2 -2 -1 -0 -2 -1 -1 -1 -1 -1 -1 -1 -1 0 1 1 2 3 2 3 4 5 4 4 4 5 5 4 4 4 4 4 4 4 4 3 3 2 2 3 3 3 3 4 4 3
-1 -1 -1 -2 -2 -2 -2 -2 -1 -2 -1 -2 -2 -2 -2 -2 -2 -2 -1 -1 -0 1 1 2 2 2 3 3 4 4 4 4 4 4 5 4 4 3 3 3 3 3 3 2 2 2 2 2 2 2 1 2 2 2
-1 -1 -2 -2 -2 -2 -3 -2 -1 -1 -1 -2 -2 -2 -2 -1 -1 -1 -1 -1 -1 1 1 2 1 1 2 1 2 3 3 4 4 3 3 4 3 3 3 3 3 3 3 2 2 2 2 2 2 1 1 3 3 1
-2 -2 -2 -2 -2 -3 -3 -3 -3 -2 -3 -3 -2 -1 -1 -1 -1 -1 -1 -1 -0 0 1 1 1 2 2 2 3 3 3 3 3 2 3 3 3 3 3 3 3 2 2 2 2 2 3 2 1 0 -0 -0 -0 0
-2 -3 -3 -2 -3 -3 -2 -2 -2 -3 -2 -2 -2 -2 -1 -0 -0 -0 -0 0 0 1 1 1 1 1 2 2 2 3 3 3 3 3 3 2 2 2 2 3 2 2 2 2 2 2 1 2 2 2 2 2 2 2
-3 -3 -3 -3 -3 -3 -2 -2 -2 -4 -3 -2 -1 -1 -0 -0 -0 -0 -0 1 1 1 1 1 1 2 2 2 3 3 3 2 3 2 2 2 2 3 2 2 2 1 2 2 1 1 1 2 2 2 2 2 2 0
-3 -3 -3 -3 -2 -2 -4 -4 -4 -3 -3 -2 -1 -0 0 -0 -0 -0 1 1 1 1 0 1 1 2 2 2 2 2 2 2 2 2 2 2 2 2 2 3 1 1 2 1 1 2 2 2 2 2 2 2 2 2
-3 -3 -3 -3 -4 -4 -4 -4 -4 -3 -2 -1 -1 0 -0 -0 -0 -0 1 1 1 0 1 1 2 1 1 1 2 2 2 2 2 2 2 2 2 2 2 2 2 1 2 2 2 2 2 2 2 2 1 1 1 1
-3 -3 -3 -3 -4 -4 -3 -3 -2 -2 -1 -1 -0 0 0 0 0 0 0 0 0 0 1 1 1 2 2 2 2 2 2 2 2 2 2 2 2 2 2 1 1 1 2 2 2 2 2 2 2 1 1 1 0 -0
-3 -3 -2 -2 -4 -4 -4 -3 -2 -2 -1 -0 0 1 0 0 1 0 0 1 0 0 1 1 1 2 1 2 2 2 2 2 1 2 2 2 2 2 2 2 2 2 2 2 2 2 3 2 2 1 1 1 -0 0
-2 -3 -4 -4 -3 -3 -4 -3 -2 -1 -1 0 0 -0 -0 0 -0 -0 -0 0 0 0 1 1 0 1 1 1 2 1 2 1 1 1 1 1 2 2 2 2 2 2 2 2 2 2 2 2 2 2 2 1 1 1
-2 -2 -4 -4 -5 -4 -4 -3 -2 -1 -1 -1 -1 -1 -0 -1 -1 0 0 0 -0 -0 1 1 1 1 1 1 2 1 2 1 2 2 2 2 2 2 2 2 2 2 2 3 3 3 3 3 3 2 2 2 1 1
-3 -5 -5 -5 -4 -4 -3 -3 -2 -1 -1 -1 -1 -1 -1 -1 -1 0 0 0 0 0 0 1 1 1 1 2 2 1 1 1 2 2 2 2 2 2 2 2 2 3 3 3 3 3 3 3 3 2 2 2 1 1
-6 -5 -4 -5 -4 -4 -3 -3 -2 -2 -2 -2 -2 -1 -1 -1 -1 0 0 -0 -0 -0 0 1 2 2 2 2 2 2 2 1 1 1 2 2 2 2 2 2 3 3 3 4 3 3 3 3 3 2 1 -0 0 0
-5 -5 -5 -5 -4 -3 -3 -3 -3 -2 -2 -2 -2 -2 -2 -1 -1 -1 -0 -0 1 -0 1 1 1 1 2 1 1 2 2 2 2 2 2 2 1 2 3 3 3 4 4 4 3 3 3 2 1 -1 1 1 1 1
-4 -5 -5 -4 -3 -3 -3 -3 -2 -2 -2 -2 -2 -2 -2 -1 -1 -0 0 1 0 0 0 0 1 1 2 1 1 1 1 1 2 2 2 2 2 3 3 3 4 4 3 3 3 3 2 2 1 1 1 1 0 -1
Height
3196 3192 3187 3183 3178 3173 3169 3165 3161 3157 3152 3149 3146 3142 3139 3135 3132 3130 3127 3123 3121 3118 3116 3114 3113 3110 3109 3111 3111 3115 3112 3113 3112 3110 3108 3105 3102 3101 3103 3102 3106 3110 3115 3115 3120 3120 3121 3121 3125 3127 3126 3128 3133 3135
3193 3190 3185 3180 3176 3170 3165 3161 3156 3152 3148 3144 3141 3138 3134 3130 3127 3124 3122 3117 3114 3110 3110 3107 3101 3097 3097 3100 3103 3107 3109 3108 3105 3100 3089 3092 3092 3093 3094 3093 3098 3102 3107 3111 3114 3115 3114 3116 3119 3121 3124 3127 3130 3133
3188 3185 3181 3177 3172 3168 3162 3156 3152 3147 3143 3140 3136 3132 3129 3125 3121 3118 3115 3111 3106 3102 3099 3095 3094 3094 3091 3093 3097 3097 3101 3102 3096 3089 3092 3090 3084 3087 3085 3086 3088 3092 3100 3103 3109 3108 3108 3111 3115 3119 3122 3125 3127 3130
3184 3179 3175 3172 3167 3163 3158 3152 3147 3142 3138 3134 3131 3127 3123 3119 3115 3111 3109 3106 3102 3098 3093 3092 3091 3092 3091 3093 3089 3090 3092 3092 3091 3092 3091 3087 3083 3083 3078 3080 3081 3082 3092 3096 3098 3099 3107 3105 3111 3115 3118 3120 3123 3125
3178 3175 3170 3166 3162 3157 3152 3147 3142 3137 3133 3128 3124 3120 3116 3111 3108 3105 3103 3101 3099 3098 3090 3085 3085 3084 3085 3086 3086 3088 3087 3087 3088 3089 3088 3082 3082 3077 3065 3078 3072 3075 3077 3086 3088 3096 3097 3102 3108 3112 3115 3117 3119 3120
3171 3168 3166 3162 3156 3151 3147 3142 3136 3132 3127 3122 3117 3112 3107 3104 3102 3099 3097 3097 3095 3092 3086 3082 3080 3078 3081 3079 3078 3079 3081 3082 3083 3081 3080 3074 3074 3081 3072 3079 3073 3070 3069 3085 3087 3093 3099 3103 3107 3111 3113 3115 3117 3118
3165 3162 3159 3155 3151 3146 3141 3137 3131 3126 3121 3116 3111 3106 3102 3098 3096 3096 3095 3093 3091 3089 3085 3079 3074 3074 3073 3072 3072 3073 3075 3075 3074 3075 3078 3074 3075 3076 3074 3074 3072 3074 3086 3082 3090 3096 3100 3105 3108 3112 3115 3116 3119 3121
3156 3154 3151 3148 3144 3140 3136 3131 3125 3121 3117 3111 3106 3102 3098 3095 3092 3091 3090 3088 3088 3086 3083 3078 3073 3072 3072 3071 3071 3072 3071 3068 3070 3073 3076 3079 3078 3081 3078 3058 3070 3080 3077 3085 3091 3095 3100 3102 3108 3111 3114 3117 3119 3121
3147 3145 3144 3140 3138 3134 3129 3125 3120 3116 3112 3107 3103 3098 3096 3092 3090 3089 3087 3085 3085 3085 3079 3076 3073 3064 3067 3069 3071 3069 3065 3066 3072 3073 3075 3078 3077 3075 3074 3074 3077 3074 3077 3084 3089 3094 3100 3104 3107 3111 3114 3117 3118 3119
3139 3137 3135 3133 3130 3128 3123 3120 3115 3112 3108 3104 3100 3096 3093 3091 3088 3088 3085 3082 3078 3075 3074 3074 3074 3069 3067 3064 3068 3066 3058 3062 3072 3075 3076 3075 3076 3076 3078 3080 3082 3084 3087 3089 3093 3097 3102 3104 3107 3109 3112 3115 3115 3115
3129 3129 3127 3125 3123 3121 3118 3114 3110 3107 3105 3101 3098 3095 3092 3089 3087 3084 3083 3080 3076 3073 3072 3073 3073 3071 3069 3067 3067 3068 3064 3066 3069 3073 3074 3075 3078 3077 3077 3078 3080 3083 3085 3088 3092 3096 3099 3102 3105 3106 3108 3110 3112 3113
3122 3120 3119 3118 3117 3115 3112 3108 3106 3103 3100 3097 3094 3091 3089 3087 3085 3085 3081 3079 3075 3072 3072 3072 3072 3071 3069 3067 3068 3069 3066 3069 3069 3072 3074 3075 3076 3077 3078 3079 3082 3084 3086 3089 3092 3095 3097 3100 3102 3103 3106 3107 3109 3111
3112 3113 3111 3111 3110 3109 3106 3103 3100 3098 3096 3093 3091 3088 3086 3086 3084 3082 3079 3076 3072 3070 3070 3071 3070 3070 3069 3069 3069 3067 3061 3068 3068 3071 3069 3073 3074 3078 3080 3082 3084 3085 3087 3089 3091 3093 3095 3097 3099 3100 3102 3103 3105 3106
3103 3103 3105 3104 3103 3102 3100 3098 3096 3094 3092 3090 3088 3086 3085 3084 3083 3079 3076 3073 3071 3071 3072 3072 3070 3070 3071 3070 3067 3065 3062 3065 3065 3064 3069 3071 3073 3077 3080 3082 3084 3085 3086 3087 3088 3090 3092 3094 3095 3096 3097 3099 3100 3101
3095 3096 3097 3096 3096 3095 3094 3093 3091 3090 3089 3088 3087 3083 3082 3082 3080 3076 3073 3069 3070 3071 3072 3072 3071 3070 3070 3071 3068 3069 3066 3062 3063 3065 3061 3074 3076 3075 3079 3081 3082 3082 3082 3083 3085 3086 3087 3089 3091 3092 3093 3094 3096 3097
3088 3090 3091 3090 3090 3088 3088 3087 3086 3085 3084 3084 3081 3079 3080 3080 3079 3074 3072 3070 3069 3071 3072 3072 3071 3071 3071 3066 3066 3069 3067 3065 3067 3071 3074 3077 3074 3076 3078 3079 3079 3078 3078 3078 3081 3083 3085 3087 3087 3089 3090 3092 3093 3093
3082 3083 3084 3084 3083 3083 3083 3082 3081 3081 3080 3077 3076 3075 3076 3076 3076 3074 3071 3068 3069 3072 3072 3071 3071 3071 3070 3068 3067 3064 3055 3065 3067 3071 3072 3074 3076 3077 3078 3078 3078 3077 3076 3076 3077 3077 3080 3081 3084 3086 3086 3088 3088 3087
3075 3076 3077 3077 3077 3077 3078 3077 3077 3076 3073 3072 3072 3074 3075 3074 3072 3072 3068 3068 3069 3072 3072 3070 3070 3071 3070 3068 3067 3068 3066 3066 3070 3073 3075 3076 3077 3078 3078 3078 3078 3078 3077 3077 3077 3077 3077 3079 3082 3083 3083 3083 3083 3082
3069 3070 3071 3072 3072 3073 3073 3072 3072 3070 3069 3070 3070 3070 3069 3068 3067 3065 3066 3066 3067 3069 3070 3070 3069 3070 3070 3069 3070 3071 3074 3076 3075 3075 3076 3076 3076 3077 3078 3078 3078 3079 3079 3078 3078 3079 3079 3079 3079 3080 3081 3079 3080 3081
3064 3065 3066 3067 3067 3068 3068 3068 3067 3066 3065 3069 3066 3065 3066 3066 3066 3064 3065 3067 3068 3068 3070 3070 3070 3069 3068 3070 3072 3074 3073 3075 3078 3077 3076 3076 3077 3078 3078 3078 3079 3080 3079 3079 3080 3081 3082 3081 3079 3079 3076 3074 3074 3074
3058 3060 3061 3062 3062 3063 3063 3063 3063 3063 3062 3062 3064 3064 3064 3064 3063 3064 3064 3065 3066 3067 3070 3071 3071 3071 3073 3073 3073 3073 3073 3075 3077 3077 3077 3077 3078 3079 3078 3079 3079 3080 3080 3080 3079 3079 3078 3079 3078 3074 3071 3068 3067 3062
3054 3055 3056 3057 3058 3058 3058 3058 3059 3059 3059 3060 3061 3061 3061 3062 3062 3062 3063 3064 3065 3067 3067 3069 3070 3071 3072 3072 3073 3074 3074 3075 3076 3076 3075 3074 3077 3078 3078 3077 3078 3078 3079 3079 3081 3079 3077 3072 3070 3067 3064 3060 3059 3057
3050 3052 3053 3055 3055 3054 3054 3054 3055 3056 3058 3059 3060 3060 3060 3060 3059 3059 3060 3061 3062 3064 3064 3064 3066 3068 3070 3072 3073 3074 3075 3075 3076 3076 3075 3077 3078 3078 3078 3078 3078 3078 3077 3076 3076 3074 3070 3067 3064 3061 3059 3056 3053 3052
3048 3049 3050 3050 3050 3050 3051 3051 3052 3054 3056 3056 3058 3058 3057 3057 3057 3057 3058 3060 3060 3060 3061 3060 3063 3066 3068 3070 3072 3073 3073 3075 3076 3075 3076 3077 3078 3079 3079 3078 3080 3079 3077 3074 3071 3069 3067 3065 3063 3062 3061 3058 3057 3057
3047 3048 3048 3045 3046 3047 3048 3050 3051 3053 3054 3055 3056 3056 3055 3055 3054 3054 3054 3055 3057 3057 3057 3059 3061 3064 3069 3071 3072 3074 3073 3074 3075 3075 3076 3078 3076 3078 3078 3078 3077 3075 3074 3072 3070 3068 3066 3065 3065 3065 3064 3063 3062 3061
3041 3042 3042 3041 3044 3045 3048 3049 3050 3051 3053 3054 3054 3054 3054 3054 3053 3052 3051 3051 3053 3054 3056 3058 3060 3063 3065 3066 3069 3071 3072 3074 3075 3078 3077 3077 3078 3075 3073 3078 3077 3075 3073 3072 3070 3069 3067 3066 3066 3066 3066 3066 3065 3065
3036 3036 3037 3038 3041 3043 3044 3046 3049 3050 3050 3051 3051 3052 3051 3051 3049 3048 3049 3050 3051 3053 3054 3057 3060 3062 3064 3066 3068 3069 3071 3072 3074 3074 3074 3076 3078 3079 3078 3078 3079 3076 3073 3072 3071 3070 3069 3068 3067 3067 3068 3068 3068 3068
3031 3032 3034 3037 3037 3039 3042 3045 3047 3047 3048 3049 3049 3048 3048 3046 3045 3046 3046 3048 3049 3052 3054 3057 3058 3060 3063 3064 3065 3066 3067 3070 3071 3074 3075 3076 3076 3078 3077 3076 3076 3074 3073 3072 3072 3072 3072 3071 3070 3070 3071 3071 3072 3072
3027 3029 3031 3032 3034 3036 3038 3041 3043 3045 3046 3046 3046 3045 3046 3045 3045 3046 3046 3046 3048 3051 3054 3054 3056 3057 3058 3060 3061 3063 3066 3068 3070 3071 3073 3076 3077 3076 3075 3075 3075 3074 3074 3074 3074 3074 3074 3073 3073 3074 3074 3075 3075 3075
3022 3025 3028 3028 3031 3032 3034 3037 3040 3043 3043 3043 3042 3044 3045 3046 3046 3045 3046 3046 3048 3052 3054 3054 3055 3057 3057 3059 3060 3062 3063 3065 3067 3070 3073 3072 3075 3075 3075 3075 3075 3075 3075 3076 3076 3076 3077 3077 3076 3077 3077 3077 3077 3077
3020 3022 3023 3026 3028 3029 3031 3034 3036 3038 3038 3039 3041 3042 3044 3045 3044 3044 3045 3046 3049 3051 3053 3055 3056 3058 3057 3059 3059 3061 3064 3066 3067 3068 3070 3069 3075 3075 3075 3075 3075 3076 3077 3077 3078 3078 3078 3078 3078 3078 3079 3080 3079 3079
3017 3019 3021 3023 3025 3027 3029 3031 3033 3034 3035 3036 3037 3039 3039 3041 3042 3043 3045 3046 3047 3049 3051 3052 3053 3055 3055 3056 3058 3060 3062 3066 3067 3069 3071 3075 3075 3074 3075 3075 3076 3077 3078 3079 3080 3080 3080 3080 3080 3081 3081 3080 3080 3080
3014 3018 3019 3023 3025 3026 3028 3029 3030 3032 3032 3033 3033 3034 3036 3038 3040 3044 3042 3044 3046 3049 3049 3050 3049 3051 3053 3056 3060 3061 3063 3066 3067 3069 3072 3073 3074 3075 3075 3076 3077 3079 3080 3081 3081 3081 3081 3081 3081 3081 3081 3081 3080 3079
Wind_Speed
25 26 28 29 29 30 27 26 25 25 23 21 22 22 23 23 22 21 22 24 25 28 25 18 22 24 20 21 18 13 17 18 22 29 32 33 34 32 36 39 39 35 34 33 32 30 27 15 19 15 14 9 16 12
24 30 29 30 31 31 30 27 25 25 24 22 22 23 24 24 24 23 23 25 27 30 28 29 31 31 30 25 25 18 21 16 18 15 14 19 21 30 35 40 37 38 38 34 28 33 17 16 14 19 20 20 20 20
26 26 31 29 31 32 32 28 27 26 25 23 24 24 25 26 25 24 23 25 28 30 29 20 18 16 12 14 14 24 19 21 24 16 11 16 14 16 20 39 25 37 40 41 28 12 10 15 16 15 15 16 18 19
28 28 26 28 31 32 32 28 28 27 25 25 26 27 28 28 27 26 23 23 25 27 29 5 6 6 9 13 18 19 23 25 24 25 24 20 23 19 13 21 22 35 24 30 18 15 11 9 11 13 15 16 17 16
29 28 26 31 31 34 29 30 30 26 26 28 30 30 30 28 27 25 22 20 20 19 23 14 11 9 11 16 25 21 21 28 23 23 30 27 17 26 20 18 20 29 22 29 16 16 10 7 7 12 15 18 20 20
28 31 28 31 31 31 30 31 31 27 29 31 31 30 28 26 24 22 21 15 11 16 22 20 14 14 12 17 17 25 21 20 23 34 21 15 7 18 15 9 9 28 7 8 17 12 8 7 7 7 5 4 4 6
30 28 28 30 30 29 29 32 30 27 29 29 28 25 22 21 18 16 16 18 18 18 22 17 8 5 7 12 17 21 23 23 20 13 17 5 1 14 14 6 17 22 16 12 13 12 12 11 12 12 13 12 13 13
29 32 29 30 30 30 33 31 27 26 27 26 24 21 19 17 15 14 14 13 15 14 17 12 9 12 12 7 11 12 12 16 11 13 5 8 7 11 3 9 12 15 17 15 15 14 14 17 13 11 11 12 11 10
36 29 30 27 29 30 31 32 25 24 24 23 21 19 16 13 11 10 11 12 12 19 14 11 13 14 13 16 15 13 11 10 6 7 1 1 7 9 7 10 9 10 13 14 12 12 9 9 10 9 9 8 8 9
30 30 31 28 29 29 29 30 23 21 21 20 19 16 11 11 13 12 16 19 24 15 18 13 9 14 5 6 14 7 1 7 10 7 6 4 3 3 2 4 6 5 6 7 8 6 7 5 6 9 11 11 12 11
28 29 28 30 27 25 29 25 21 20 18 17 16 13 14 13 14 10 7 7 6 5 12 9 4 9 4 6 12 7 4 7 9 7 11 5 4 4 5 4 5 6 7 8 9 11 12 13 10 8 13 13 14 14
33 27 27 23 24 24 29 22 19 19 19 16 15 15 13 9 3 4 7 10 5 5 5 5 4 6 4 3 7 8 8 6 3 11 4 8 6 1 4 6 8 7 8 10 13 13 14 13 14 15 13 13 15 13
28 28 22 23 22 24 27 20 18 17 17 15 14 8 4 2 4 5 5 11 11 5 4 1 4 1 6 4 4 6 9 9 12 13 4 7 10 7 6 6 6 8 10 11 11 11 12 15 15 15 16 18 20 20
28 23 22 22 24 23 24 18 16 15 15 12 8 6 3 3 6 10 11 18 4 7 9 5 3 4 4 2 4 5 6 4 5 7 8 13 10 10 6 5 6 8 10 12 13 13 14 15 15 15 17 16 16 16
22 17 18 17 17 21 18 16 15 14 13 9 6 5 5 6 9 16 19 11 12 2 4 6 3 4 4 4 8 1 1 2 2 1 16 12 10 6 3 5 9 12 14 15 13 9 11 12 13 16 17 17 17 17
22 19 18 19 20 19 16 15 14 14 13 11 10 8 7 7 9 14 16 7 13 4 7 3 3 3 5 4 2 3 3 2 6 7 12 8 3 1 3 5 6 7 7 8 9 9 10 11 14 13 12 12 14 16
26 20 19 18 18 16 15 14 14 13 9 8 5 8 10 10 9 11 13 8 11 7 6 5 5 4 2 4 1 4 9 13 11 7 4 1 1 3 2 4 5 5 3 3 9 14 16 14 9 13 16 16 13 18
19 17 18 16 15 15 15 14 14 12 14 12 11 8 9 10 11 10 9 7 6 6 7 5 3 3 1 2 6 3 4 8 7 3 3 4 6 3 3 5 5 6 7 3 1 5 12 12 6 6 12 14 15 16
18 15 14 15 14 14 13 14 15 15 13 9 10 11 11 10 10 9 11 7 10 13 6 4 2 7 7 2 6 9 7 1 1 2 5 6 5 3 2 4 2 3 4 5 9 8 5 2 3 4 4 7 6 9
14 13 14 14 13 12 11 11 13 12 6 5 9 9 9 10 8 8 7 7 5 8 7 5 3 3 3 6 5 7 6 2 1 1 2 4 7 3 1 1 1 1 5 6 4 6 5 5 9 8 12 14 16 10
14 12 13 12 12 12 13 10 10 8 9 9 5 7 8 7 9 9 9 7 6 5 5 6 7 5 7 7 5 4 7 6 6 5 5 4 4 2 4 3 4 2 4 5 9 12 7 6 10 14 17 14 12 19
12 11 11 11 12 13 14 15 12 12 10 7 8 8 7 6 7 9 10 11 10 9 12 12 11 8 8 8 5 4 3 6 7 6 8 6 5 3 5 1 6 7 7 3 6 8 12 17 20 19 19 22 19 19
10 11 11 12 10 8 8 12 11 8 6 3 4 5 5 6 7 10 10 9 8 8 11 12 15 16 14 9 7 6 7 6 4 3 13 5 3 4 1 2 3 4 8 7 14 17 20 15 15 9 9 9 6 4
11 11 11 8 9 8 7 7 6 6 7 7 5 7 7 7 7 8 8 6 9 10 9 13 15 14 10 7 9 4 7 7 2 6 8 8 2 1 3 3 3 2 9 14 12 8 8 9 5 8 12 17 15 13
10 9 9 10 9 9 8 7 9 7 6 6 7 6 6 7 7 6 8 13 8 8 10 15 12 12 7 4 4 7 6 3 1 2 2 3 4 3 1 1 5 10 9 8 8 8 8 4 6 8 6 9 9 9
10 9 9 7 7 8 7 4 7 8 6 7 8 7 7 8 7 6 8 9 11 11 11 11 13 14 13 9 8 7 7 6 6 6 6 3 4 11 4 6 10 10 9 9 7 6 6 3 3 4 4 5 8 8
12 8 10 14 8 8 7 8 7 8 8 8 7 8 8 7 7 7 8 9 11 11 11 10 10 7 11 12 13 13 11 11 11 8 5 5 8 5 3 4 4 10 8 6 4 5 5 5 7 7 7 7 9 12
14 11 13 10 11 11 9 8 7 7 7 8 8 8 6 5 5 6 10 11 16 11 8 6 8 8 8 8 7 8 11 10 9 6 5 5 8 7 6 5 8 6 5 3 5 6 6 9 11 12 12 12 12 10
16 13 11 14 12 11 11 10 8 9 9 9 8 7 5 3 2 3 5 5 11 5 5 6 4 9 8 8 8 8 10 9 9 9 8 8 9 8 5 6 6 3 3 4 5 5 7 9 10 10 10 9 8 7
15 11 11 11 15 14 11 11 9 8 9 11 10 7 5 4 5 4 3 7 12 6 5 1 2 4 7 8 7 7 7 10 8 4 10 15 11 10 5 4 1 2 4 5 5 6 7 7 8 8 8 6 5 5
8 11 13 11 11 12 13 9 11 10 11 11 10 10 9 9 8 7 7 5 6 6 4 4 3 4 6 8 7 5 7 8 16 19 16 14 11 9 3 2 4 5 5 6 6 5 6 6 5 5 5 3 2 3
10 10 10 9 8 9 9 11 12 12 10 10 12 12 11 9 8 5 7 9 9 7 7 9 8 7 11 10 13 13 16 11 12 19 17 11 9 4 3 5 6 6 6 6 5 4 4 4 4 4 2 4 4 4
11 10 11 9 8 8 9 8 7 8 11 13 14 13 12 11 11 8 11 11 10 9 9 8 7 8 11 14 13 14 13 14 16 14 11 10 5 4 6 8 8 7 6 5 4 4 3 3 2 1 0 2 5 6
Wind_Direction
332 338 345 348 342 343 332 326 324 325 324 321 320 320 319 317 314 310 305 300 295 292 296 285 295 282 271 254 260 257 279 262 243 249 241 242 242 236 232 223 217 209 221 220 226 230 237 229 223 226 204 199 225 223
331 332 334 335 337 342 341 330 324 322 321 319 319 318 316 313 310 307 304 298 296 292 296 297 286 275 262 255 232 248 248 261 226 246 235 243 262 235 224 227 217 210 214 217 222 226 219 197 186 209 224 239 246 248
321 323 326 327 331 331 338 334 326 321 318 315 314 314 313 310 307 303 303 301 297 301 306 310 286 297 263 223 245 244 250 250 233 246 262 244 265 239 252 224 218 215 222 215 223 201 191 203 216 229 239 243 243 243
314 314 322 323 326 326 329 333 329 320 315 313 312 311 309 306 303 300 302 300 300 305 310 343 309 265 240 250 262 252 223 242 238 230 262 246 259 242 240 217 222 199 237 202 188 192 219 193 215 223 232 242 245 248
310 313 313 320 323 324 325 326 327 318 314 314 313 310 305 301 298 298 298 295 292 294 292 298 271 253 251 257 243 239 245 239 243 233 243 238 251 273 268 214 203 201 247 190 170 186 189 210 211 230 239 245 251 253
306 309 311 319 320 325 324 327 326 319 316 318 317 313 306 300 299 300 304 293 289 304 298 305 262 250 245 262 249 236 242 230 250 224 251 256 297 288 278 187 185 174 128 133 145 168 164 162 151 142 149 146 164 183
296 304 307 314 315 319 322 322 324 320 320 323 323 321 312 305 299 294 282 280 285 298 288 307 303 251 254 233 230 215 232 249 246 243 228 216 198 266 285 245 113 130 168 132 140 150 138 131 136 135 136 134 126 123
284 298 309 307 313 313 319 318 320 320 321 325 325 323 316 310 302 293 289 277 280 288 289 283 278 266 188 194 212 219 262 235 251 201 176 227 206 223 192 120 83 90 115 148 153 132 153 160 139 141 143 153 147 150
284 291 301 300 309 310 316 317 318 319 321 325 326 326 322 314 307 302 305 290 261 267 268 267 288 319 162 202 226 260 242 193 141 161 196 260 164 216 228 114 159 116 122 130 124 105 113 148 160 162 164 171 189 171
284 290 300 296 308 305 311 314 315 316 320 324 329 328 332 319 309 303 289 291 285 261 244 264 293 294 289 207 189 283 275 128 152 154 154 184 26 253 249 228 200 179 174 158 107 130 123 138 155 179 182 178 199 203
278 290 288 295 301 305 311 311 313 313 317 321 322 312 309 306 305 300 276 283 278 253 233 281 295 285 250 277 180 199 50 123 132 144 128 176 225 277 249 266 263 257 253 247 233 227 236 236 231 221 226 222 231 227
272 284 285 287 296 296 308 307 311 311 313 318 315 311 303 295 284 270 273 288 257 250 223 288 280 287 250 297 184 206 229 172 163 137 131 196 183 316 227 233 241 248 248 245 237 237 239 244 242 243 244 245 237 242
274 279 273 280 288 296 306 302 306 305 306 312 314 301 295 278 281 257 296 315 296 170 191 345 305 260 245 298 255 193 212 124 146 186 148 154 140 164 192 202 222 239 249 253 251 242 237 241 247 258 260 263 271 271
270 265 266 273 284 288 298 296 298 298 304 312 302 279 256 245 261 280 301 318 210 154 154 271 277 226 235 232 224 309 350 161 144 172 134 144 146 158 175 210 239 249 252 253 252 250 247 247 248 250 250 255 258 255
256 261 273 276 283 292 288 287 290 289 292 288 268 254 247 262 279 284 314 308 182 209 327 311 254 212 232 236 204 268 322 19 65 57 157 145 149 159 222 269 273 272 270 264 255 247 250 244 240 238 234 230 229 228
260 265 271 277 271 288 281 283 282 280 281 271 244 243 272 279 282 294 312 261 208 222 317 286 181 196 213 255 207 177 154 39 97 97 120 133 118 201 289 304 298 304 299 248 217 214 213 209 207 209 219 232 244 252
257 263 270 270 273 273 279 278 276 276 253 244 261 272 254 266 272 276 291 240 218 238 289 265 219 197 279 260 258 209 204 121 112 115 151 4 324 323 325 335 359 9 355 56 177 172 183 198 210 232 243 253 243 269
252 254 253 257 267 270 273 267 266 264 257 265 261 266 267 260 261 280 287 215 240 231 254 248 198 212 278 263 44 43 32 98 120 179 282 297 298 288 282 303 10 38 43 47 97 212 215 212 216 258 261 268 277 282
247 252 259 270 262 266 267 268 257 256 266 256 257 259 261 258 264 263 231 237 215 204 231 227 231 234 217 124 163 147 126 108 276 281 304 291 259 205 303 339 257 1 54 71 54 25 29 22 269 271 296 281 276 275
240 259 264 254 257 260 254 256 260 251 251 233 255 254 250 252 256 254 234 243 215 231 230 227 258 171 199 137 103 149 150 143 18 230 246 153 156 168 33 303 241 274 30 46 58 48 350 345 319 324 295 298 291 266
232 255 253 250 256 250 243 243 246 257 257 257 242 247 244 250 256 241 231 227 232 208 212 221 191 185 200 224 210 216 249 248 224 200 164 170 195 8 316 281 242 116 141 54 338 330 346 298 300 305 302 302 266 265
239 238 244 254 254 252 250 243 232 230 256 252 249 246 246 243 251 240 218 223 230 237 226 213 212 210 202 211 221 225 219 177 198 242 294 165 195 211 243 198 266 213 204 204 283 286 295 306 315 303 296 287 284 276
236 236 246 249 248 250 258 241 237 235 239 238 242 233 234 231 218 219 212 222 226 239 242 228 220 219 223 228 218 209 200 203 227 100 123 88 79 132 186 320 351 24 17 291 310 304 305 311 318 345 17 18 24 10
226 234 240 236 225 232 240 234 234 213 235 226 214 226 225 225 232 211 213 223 225 219 218 214 205 213 206 214 206 204 187 180 205 150 103 141 144 95 102 47 28 331 320 313 313 325 329 341 48 83 65 62 69 69
221 227 224 236 227 228 228 229 226 221 227 217 217 217 225 230 229 231 209 215 213 222 208 195 191 156 192 219 202 200 200 204 100 37 53 305 73 278 162 295 329 340 351 354 351 356 2 58 89 91 87 68 74 75
219 224 220 218 206 213 209 211 216 216 210 219 218 208 225 223 238 242 224 211 203 205 202 198 188 182 185 186 189 240 250 200 209 222 270 231 189 281 68 2 345 340 348 343 356 5 18 67 150 122 66 65 85 73
219 226 231 216 193 223 219 212 207 209 204 210 200 212 221 231 230 225 217 207 204 201 194 185 172 188 198 193 195 197 202 212 197 212 221 194 172 217 302 2 274 326 340 352 25 36 56 82 102 101 92 89 97 107
223 224 225 230 221 212 211 196 218 207 198 209 217 222 220 232 230 213 216 227 212 196 196 193 219 202 204 211 222 224 216 207 216 216 233 199 192 199 226 291 335 345 355 25 57 67 77 94 97 97 100 98 99 96
234 231 224 214 217 216 216 205 196 207 211 213 210 233 211 235 228 217 221 234 190 176 182 167 217 207 210 217 219 201 198 202 210 212 194 188 196 208 260 304 338 14 41 80 89 96 99 99 100 96 93 87 83 79
230 218 221 222 215 217 221 210 202 206 223 218 229 230 230 264 248 259 224 176 187 165 174 116 262 213 219 213 211 199 201 187 200 176 193 185 180 233 244 305 32 121 121 117 108 102 97 97 97 96 93 85 68 50
208 212 214 210 226 226 225 213 223 219 225 219 222 223 218 232 257 273 227 181 195 209 210 197 213 226 216 218 167 169 183 193 181 182 168 148 180 234 240 164 159 156 137 127 121 118 115 109 101 95 89 111 320 64
200 200 202 211 227 221 216 218 219 227 233 235 227 232 235 238 229 216 208 195 194 182 210 205 206 203 205 197 177 187 171 175 190 171 148 164 186 195 175 170 160 147 142 137 130 122 113 108 108 119 105 46 36 23
195 200 200 200 210 212 211 196 213 225 231 233 232 230 222 220 214 196 212 198 183 197 209 209 218 172 193 162 168 179 167 173 165 166 167 173 180 161 160 154 152 152 150 144 131 122 113 111 133 159 315 341 352 345